| time (UTC) | temp F | wind direction | speed MPH | gust MPH | rain 1hr in | rain 24hr in | rain mn in | humidity % | barometer mb |
| 20260504234354 | 44 | 300 | 1.0 | 3.0 | 0.00 | 0.00 | 0.00 | 83 | 1014.3 |
| 20260504233354 | 45 | 309 | 1.0 | 2.0 | 0.00 | 0.00 | 0.00 | 83 | 1014.3 |
| 20260504232854 | 45 | 309 | 1.0 | 3.0 | 0.00 | 0.00 | 0.00 | 83 | 1014.3 |
| 20260504232353 | 45 | 308 | 1.0 | 3.0 | 0.00 | 0.00 | 0.00 | 83 | 1014.2 |
| 20260504231854 | 45 | 302 | 1.0 | 3.0 | 0.00 | 0.00 | 0.00 | 84 | 1014.2 |
| 20260504231354 | 45 | 292 | 0.0 | 2.0 | 0.00 | 0.00 | 0.00 | 84 | 1014.3 |
| 20260504230937 | 45 | 303 | 1.0 | 3.0 | 0.00 | 0.00 | 0.00 | 84 | 1014.3 |
| 20260504225354 | 45 | 304 | 1.0 | 3.0 | 0.00 | 0.00 | 0.00 | 85 | 1014.3 |
| 20260504224854 | 45 | 238 | 1.0 | 3.0 | 0.00 | 0.00 | 0.00 | 84 | 1014.3 |
| 20260504224354 | 45 | 252 | 1.0 | 3.0 | 0.00 | 0.00 | 0.00 | 85 | 1014.3 |
| 20260504223354 | 46 | 252 | 2.0 | 3.0 | 0.00 | 0.00 | 0.00 | 85 | 1014.4 |
| 20260504222354 | 46 | 277 | 1.0 | 3.0 | 0.00 | 0.00 | 0.00 | 85 | 1014.6 |
| 20260504221854 | 46 | 248 | 1.0 | 3.0 | 0.00 | 0.00 | 0.00 | 84 | 1014.6 |
| 20260504221354 | 46 | 248 | 1.0 | 3.0 | 0.00 | 0.00 | 0.00 | 84 | 1014.6 |
| 20260504220854 | 46 | 231 | 1.0 | 3.0 | 0.00 | 0.00 | 0.00 | 84 | 1014.6 |
| 20260504215853 | 47 | 305 | 1.0 | 3.0 | 0.00 | 0.00 | 0.00 | 84 | 1014.6 |
| 20260504215354 | 47 | 314 | 1.0 | 3.0 | 0.00 | 0.00 | 0.00 | 83 | 1014.5 |
| 20260504214853 | 47 | 304 | 1.0 | 3.0 | 0.00 | 0.00 | 0.00 | 83 | 1014.5 |
| 20260504214354 | 47 | 273 | 1.0 | 3.0 | 0.00 | 0.00 | 0.00 | 83 | 1014.5 |
| 20260504213353 | 48 | 272 | 1.0 | 3.0 | 0.00 | 0.00 | 0.00 | 83 | 1014.5 |
| 20260504212854 | 48 | 270 | 1.0 | 3.0 | 0.00 | 0.00 | 0.00 | 83 | 1014.6 |
| 20260504212354 | 48 | 270 | 1.0 | 3.0 | 0.00 | 0.00 | 0.00 | 83 | 1014.6 |
| 20260504211854 | 48 | 270 | 1.0 | 3.0 | 0.00 | 0.00 | 0.00 | 83 | 1014.7 |
| 20260504211354 | 48 | 270 | 1.0 | 2.0 | 0.00 | 0.00 | 0.00 | 83 | 1014.7 |
| 20260504210853 | 49 | 270 | 1.0 | 3.0 | 0.00 | 0.00 | 0.00 | 83 | 1014.7 |
| 20260504210354 | 49 | 275 | 1.0 | 2.0 | 0.00 | 0.00 | 0.00 | 83 | 1014.7 |
| 20260504205853 | 49 | 275 | 1.0 | 2.0 | 0.00 | 0.00 | 0.00 | 83 | 1014.7 |
| 20260504205354 | 49 | 275 | 1.0 | 2.0 | 0.00 | 0.00 | 0.00 | 83 | 1014.7 |
| 20260504204854 | 49 | 275 | 1.0 | 3.0 | 0.00 | 0.00 | 0.00 | 83 | 1014.7 |
| 20260504204354 | 50 | 275 | 0.0 | 3.0 | 0.00 | 0.00 | 0.00 | 82 | 1014.7 |
| 20260504203853 | 50 | 275 | 0.0 | 2.0 | 0.00 | 0.00 | 0.00 | 82 | 1014.7 |
| 20260504203355 | 50 | 275 | 0.0 | 2.0 | 0.00 | 0.00 | 0.00 | 82 | 1014.6 |
| 20260504202353 | 50 | 275 | 1.0 | 3.0 | 0.00 | 0.00 | 0.00 | 82 | 1014.6 |
| 20260504201854 | 51 | 245 | 1.0 | 3.0 | 0.00 | 0.00 | 0.00 | 82 | 1014.6 |
| 20260504201354 | 51 | 286 | 1.0 | 3.0 | 0.00 | 0.00 | 0.00 | 82 | 1014.6 |
| 20260504200854 | 51 | 270 | 2.0 | 3.0 | 0.00 | 0.00 | 0.00 | 82 | 1014.6 |
| 20260504200354 | 51 | 266 | 1.0 | 3.0 | 0.00 | 0.00 | 0.00 | 82 | 1014.6 |
| 20260504195354 | 51 | 236 | 1.0 | 3.0 | 0.00 | 0.00 | 0.00 | 81 | 1014.5 |
| 20260504194854 | 51 | 236 | 2.0 | 3.0 | 0.00 | 0.00 | 0.00 | 81 | 1014.5 |
| 20260504194354 | 51 | 247 | 2.0 | 3.0 | 0.00 | 0.00 | 0.00 | 81 | 1014.4 |
| 20260504193854 | 52 | 270 | 1.0 | 3.0 | 0.00 | 0.00 | 0.00 | 81 | 1014.3 |
| 20260504192854 | 52 | 264 | 2.0 | 6.0 | 0.00 | 0.00 | 0.00 | 79 | 1014.3 |
| 20260504192353 | 52 | 289 | 1.0 | 6.0 | 0.00 | 0.00 | 0.00 | 79 | 1014.2 |
| 20260504191854 | 53 | 293 | 2.0 | 6.0 | 0.00 | 0.00 | 0.00 | 78 | 1014.1 |
| 20260504191354 | 53 | 266 | 2.0 | 7.0 | 0.00 | 0.00 | 0.00 | 78 | 1014.1 |
| 20260504190854 | 53 | 278 | 2.0 | 7.0 | 0.00 | 0.00 | 0.00 | 77 | 1014.0 |
| 20260504190354 | 54 | 288 | 2.0 | 7.0 | 0.00 | 0.00 | 0.00 | 77 | 1014.1 |
| 20260504185854 | 54 | 279 | 3.0 | 6.0 | 0.00 | 0.00 | 0.00 | 77 | 1014.0 |
| 20260504185354 | 54 | 282 | 3.0 | 7.0 | 0.00 | 0.00 | 0.00 | 77 | 1014.0 |
| 20260504184854 | 54 | 275 | 2.0 | 7.0 | 0.00 | 0.00 | 0.00 | 77 | 1014.0 |
| 20260504184353 | 55 | 281 | 2.0 | 3.0 | 0.00 | 0.00 | 0.00 | 77 | 1014.1 |
| 20260504183854 | 55 | 300 | 2.0 | 3.0 | 0.00 | 0.00 | 0.00 | 77 | 1014.0 |
| 20260504183353 | 55 | 299 | 2.0 | 7.0 | 0.00 | 0.00 | 0.00 | 77 | 1014.0 |
| 20260504181853 | 55 | 239 | 1.0 | 3.0 | 0.00 | 0.00 | 0.00 | 78 | 1013.9 |
| 20260504181353 | 55 | 236 | 1.0 | 2.0 | 0.00 | 0.00 | 0.00 | 78 | 1013.9 |
| 20260504180854 | 55 | 212 | 0.0 | 1.0 | 0.00 | 0.00 | 0.00 | 78 | 1013.9 |
| 20260504180353 | 55 | 212 | 1.0 | 2.0 | 0.00 | 0.00 | 0.00 | 78 | 1013.9 |
| 20260504175854 | 55 | 212 | 0.0 | 1.0 | 0.00 | 0.00 | 0.00 | 78 | 1013.9 |
| 20260504175354 | 55 | 212 | 1.0 | 2.0 | 0.00 | 0.00 | 0.00 | 78 | 1013.9 |
| 20260504174853 | 55 | 212 | 0.0 | 2.0 | 0.00 | 0.00 | 0.00 | 78 | 1013.9 |
| 20260504174354 | 55 | 212 | 0.0 | 2.0 | 0.00 | 0.00 | 0.00 | 78 | 1013.9 |
| 20260504173854 | 55 | 212 | 0.0 | 2.0 | 0.00 | 0.00 | 0.00 | 77 | 1013.9 |
| 20260504172854 | 55 | 269 | 0.0 | 2.0 | 0.00 | 0.00 | 0.00 | 78 | 1013.9 |
| 20260504172353 | 55 | 269 | 0.0 | 2.0 | 0.00 | 0.00 | 0.00 | 78 | 1013.9 |
| 20260504171854 | 55 | 281 | 1.0 | 3.0 | 0.00 | 0.00 | 0.00 | 78 | 1013.9 |
| 20260504171354 | 55 | 325 | 0.0 | 1.0 | 0.00 | 0.00 | 0.00 | 78 | 1014.0 |
| 20260504170853 | 55 | 325 | 1.0 | 2.0 | 0.00 | 0.00 | 0.00 | 78 | 1014.0 |
| 20260504170353 | 55 | 325 | 0.0 | 2.0 | 0.00 | 0.00 | 0.00 | 78 | 1014.0 |
| 20260504160353 | 58 | 203 | 2.0 | 3.0 | 0.00 | 0.00 | 0.00 | 68 | 1014.1 |
| 20260504150853 | 59 | 173 | 5.0 | 8.0 | 0.00 | 0.00 | 0.00 | 65 | 1014.3 |
| 20260504150353 | 58 | 169 | 2.0 | 7.0 | 0.00 | 0.00 | 0.00 | 66 | 1014.4 |
| 20260504140854 | 57 | 209 | 2.0 | 6.0 | 0.00 | 0.00 | 0.00 | 68 | 1014.7 |
| 20260504140353 | 57 | 242 | 1.0 | 2.0 | 0.00 | 0.00 | 0.00 | 68 | 1014.8 |
| 20260504130353 | 56 | 215 | 1.0 | 3.0 | 0.00 | 0.00 | 0.00 | 71 | 1015.1 |
| 20260504110354 | 53 | 168 | 3.0 | 6.0 | 0.00 | 0.03 | 0.00 | 76 | 1015.3 |
| 20260504081853 | 48 | 94 | 2.0 | 5.0 | 0.00 | 0.06 | 0.00 | 87 | 1015.2 |
| 20260504081353 | 48 | 92 | 1.0 | 3.0 | 0.00 | 0.07 | 0.00 | 87 | 1015.2 |
| 20260504080853 | 48 | 92 | 2.0 | 6.0 | 0.00 | 0.07 | 0.00 | 88 | 1015.2 |
| 20260504080353 | 47 | 85 | 2.0 | 6.0 | 0.00 | 0.07 | 0.00 | 88 | 1015.1 |
| 20260504070353 | 46 | 102 | 0.0 | 2.0 | 0.00 | 0.09 | 0.00 | 92 | 1014.7 |
| 20260504050353 | 45 | 15 | 2.0 | 5.0 | 0.00 | 0.09 | 0.00 | 93 | 1013.9 |
| 20260504044853 | 45 | 18 | 1.0 | 3.0 | 0.00 | 0.09 | 0.00 | 93 | 1013.9 |
| 20260504044352 | 45 | 15 | 2.0 | 5.0 | 0.00 | 0.09 | 0.00 | 93 | 1013.8 |
| 20260504043853 | 45 | 353 | 1.0 | 3.0 | 0.00 | 0.09 | 0.00 | 93 | 1013.8 |
| 20260504043352 | 45 | 25 | 1.0 | 3.0 | 0.00 | 0.09 | 0.00 | 92 | 1013.8 |
| 20260504042853 | 45 | 0 | 1.0 | 3.0 | 0.00 | 0.09 | 0.00 | 92 | 1013.8 |
| 20260504042352 | 45 | 340 | 0.0 | 3.0 | 0.00 | 0.09 | 0.00 | 92 | 1013.7 |
| 20260504041853 | 45 | 355 | 1.0 | 3.0 | 0.00 | 0.09 | 0.00 | 92 | 1013.7 |
| 20260504041353 | 45 | 32 | 1.0 | 3.0 | 0.00 | 0.09 | 0.00 | 92 | 1013.7 |
| 20260504040853 | 45 | 24 | 1.0 | 3.0 | 0.00 | 0.09 | 0.00 | 93 | 1013.7 |
| 20260504040353 | 45 | 18 | 1.0 | 3.0 | 0.00 | 0.09 | 0.00 | 93 | 1013.8 |
| 20260504035853 | 45 | 32 | 2.0 | 3.0 | 0.00 | 0.09 | 0.00 | 93 | 1013.7 |
| 20260504035352 | 45 | 36 | 1.0 | 3.0 | 0.00 | 0.09 | 0.00 | 92 | 1013.6 |
| 20260504034352 | 45 | 30 | 2.0 | 5.0 | 0.00 | 0.09 | 0.00 | 92 | 1013.6 |
| 20260504033853 | 45 | 327 | 1.0 | 3.0 | 0.00 | 0.09 | 0.00 | 93 | 1013.5 |
| 20260504033353 | 45 | 59 | 1.0 | 3.0 | 0.00 | 0.09 | 0.00 | 92 | 1013.5 |
| 20260504032853 | 45 | 62 | 1.0 | 2.0 | 0.00 | 0.09 | 0.00 | 92 | 1013.5 |
| 20260504032352 | 45 | 62 | 1.0 | 3.0 | 0.00 | 0.10 | 0.00 | 92 | 1013.5 |
| 20260504031853 | 45 | 97 | 1.0 | 3.0 | 0.00 | 0.10 | 0.00 | 92 | 1013.4 |
| 20260504031353 | 45 | 88 | 1.0 | 2.0 | 0.00 | 0.11 | 0.00 | 92 | 1013.5 |
| 20260504030853 | 45 | 33 | 0.0 | 2.0 | 0.00 | 0.11 | 0.00 | 92 | 1013.5 |
| 20260504030352 | 45 | 33 | 1.0 | 2.0 | 0.00 | 0.11 | 0.00 | 92 | 1013.5 |
| 20260504025853 | 45 | 33 | 1.0 | 5.0 | 0.00 | 0.11 | 0.00 | 92 | 1013.5 |
| 20260504025352 | 45 | 117 | 1.0 | 3.0 | 0.00 | 0.11 | 0.00 | 92 | 1013.4 |
| 20260504024852 | 45 | 117 | 1.0 | 2.0 | 0.00 | 0.11 | 0.00 | 92 | 1013.4 |
| 20260504024353 | 45 | 117 | 0.0 | 2.0 | 0.00 | 0.11 | 0.00 | 92 | 1013.4 |
| 20260504023853 | 45 | 117 | 2.0 | 5.0 | 0.00 | 0.11 | 0.00 | 92 | 1013.4 |
| 20260504023353 | 45 | 0 | 1.0 | 3.0 | 0.00 | 0.12 | 0.00 | 92 | 1013.4 |
| 20260504022852 | 45 | 41 | 0.0 | 5.0 | 0.00 | 0.12 | 0.00 | 92 | 1013.4 |
| 20260504022352 | 45 | 60 | 2.0 | 5.0 | 0.00 | 0.13 | 0.00 | 92 | 1013.3 |
| 20260504021853 | 45 | 62 | 1.0 | 3.0 | 0.00 | 0.13 | 0.00 | 92 | 1013.3 |
| 20260504020853 | 45 | 70 | 1.0 | 3.0 | 0.00 | 0.13 | 0.00 | 92 | 1013.3 |
| 20260504020353 | 45 | 348 | 2.0 | 3.0 | 0.00 | 0.13 | 0.00 | 92 | 1013.3 |
| 20260504015853 | 45 | 65 | 0.0 | 2.0 | 0.00 | 0.14 | 0.00 | 92 | 1013.4 |
| 20260504015352 | 45 | 9 | 1.0 | 3.0 | 0.00 | 0.14 | 0.00 | 92 | 1013.3 |
| 20260504014852 | 45 | 40 | 1.0 | 5.0 | 0.00 | 0.14 | 0.00 | 92 | 1013.3 |
| 20260504014352 | 45 | 15 | 2.0 | 6.0 | 0.00 | 0.14 | 0.00 | 92 | 1013.3 |
| 20260504013352 | 46 | 286 | 1.0 | 3.0 | 0.00 | 0.15 | 0.00 | 92 | 1013.3 |
| 20260504012353 | 46 | 43 | 1.0 | 3.0 | 0.00 | 0.15 | 0.00 | 92 | 1013.2 |
| 20260504011852 | 46 | 72 | 1.0 | 5.0 | 0.00 | 0.16 | 0.00 | 92 | 1013.1 |
| 20260504010852 | 46 | 8 | 2.0 | 5.0 | 0.00 | 0.17 | 0.00 | 92 | 1013.1 |
| 20260504010352 | 46 | 5 | 1.0 | 3.0 | 0.00 | 0.17 | 0.00 | 92 | 1013.1 |
| 20260504005853 | 46 | 3 | 1.0 | 2.0 | 0.00 | 0.18 | 0.00 | 92 | 1013.1 |
| 20260504005352 | 46 | 98 | 1.0 | 3.0 | 0.00 | 0.18 | 0.00 | 92 | 1013.0 |
| 20260504004852 | 46 | 9 | 1.0 | 3.0 | 0.00 | 0.19 | 0.00 | 92 | 1013.0 |
| 20260504003853 | 46 | 69 | 2.0 | 3.0 | 0.00 | 0.20 | 0.00 | 92 | 1013.0 |
| 20260504003352 | 46 | 142 | 1.0 | 3.0 | 0.00 | 0.21 | 0.00 | 93 | 1013.0 |
| 20260504002853 | 46 | 75 | 1.0 | 3.0 | 0.00 | 0.21 | 0.00 | 93 | 1013.0 |
| 20260504002352 | 46 | 72 | 0.0 | 2.0 | 0.00 | 0.22 | 0.00 | 93 | 1012.9 |
| 20260504001853 | 46 | 94 | 1.0 | 3.0 | 0.00 | 0.23 | 0.00 | 93 | 1012.9 |
| 20260504001353 | 46 | 121 | 2.0 | 6.0 | 0.00 | 0.24 | 0.00 | 93 | 1012.9 |
| 20260504000853 | 46 | 58 | 1.0 | 15.0 | 0.00 | 0.24 | 0.00 | 93 | 1012.9 |
| 20260504000354 | 46 | 33 | 1.0 | 3.0 | 0.00 | 0.24 | 0.00 | 93 | 1012.9 |
| 20260503235853 | 46 | 0 | 1.0 | 5.0 | 0.00 | 0.25 | 0.00 | 93 | 1013.0 |
| 20260503235352 | 46 | 31 | 1.0 | 5.0 | 0.00 | 0.26 | 0.00 | 93 | 1013.0 |
| 20260503234852 | 46 | 28 | 2.0 | 5.0 | 0.00 | 0.27 | 0.00 | 93 | 1013.0 |